This demonstration page uses our WeatherBlox Daily Observations layout. Learn more.

Left ArrowRight Arrow

40.92945, -100.16068

Hourly Observations for May 19, 2020

Temp ( °F °C ) Dew Point ( °F °C ) Humidity (%) Winds ( mph kmh ) Pressure ( in mb ) Visibility ( mi km ) Precip ( " mm )
12:15 am 00:15 Clear 54 12 50 9.8 87 87 E 9 15 30 1016 7 11.26538 0 0
12:35 am 00:35 Clear 53 11.7 49 9.7 88 88 E 10 17 30.01 1016 7 11.26538 0 0
12:55 am 00:55 Clear 52 11.3 49 9.5 89 89 ESE 10 17 30.02 1017 7 11.26538 0 0
1:15 am 01:15 Clear 52 11 48 9 88 88 ESE 8 13 30.02 1017 10 16.0934 0 0
1:35 am 01:35 Clear 51 10.3 48 8.7 90 90 E 7 11 30.03 1017 10 16.0934 0 0
1:55 am 01:55 Clear 50 9.8 47 8.5 92 92 E 6 9 30.02 1017 7 11.26538 0 0
2:15 am 02:15 Clear 49 9.3 47 8.2 93 93 E 6 9 30.02 1017 7 11.26538 0 0
2:35 am 02:35 Clear 49 9.3 47 8.2 93 93 E 6 9 30.01 1016 7 11.26538 0 0
2:55 am 02:55 Clear 48 8.9 46 8 94 94 E 6 9 30.01 1016 7 11.26538 0 0
3:15 am 03:15 Clear 48 9 46 8 94 94 ESE 6 9 30.01 1016 7 11.26538 0 0
3:35 am 03:35 Clear 47 8.4 46 7.5 94 94 E 3 6 30.02 1016 7 11.26538 0 0
3:55 am 03:55 Clear with Mist and Fog 46 7.7 45 7.1 96 96 Calm 30.02 1017 5 8.0467 0 0
4:15 am 04:15 Clear with Mist and Fog 45 7 44 6.5 97 97 Calm 30.04 1017 4 6.43736 0 0
4:35 am 04:35 Clear with Mist and Fog 45 7 44 6.5 97 97 ENE 3 6 30.04 1017 4 6.43736 0 0
4:55 am 04:55 Clear with Mist and Fog 44 6.7 43 6.3 97 97 ENE 3 6 30.03 1017 3 4.82802 0 0
5:15 am 05:15 Clear with Mist and Fog 44 6.7 44 6.5 99 99 Calm 30.03 1017 3 4.82802 0 0
5:35 am 05:35 Clear with Mist and Fog 44 6.8 44 6.5 98 98 Calm 30.04 1017 3 4.82802 0 0
5:55 am 05:55 Clear with Mist and Fog 44 6.5 43 6.2 98 98 Calm 30.05 1018 3 4.82802 0 0
6:15 am 06:15 Partly Cloudy with Mist and Fog 44 6.6 43 6.1 97 97 Calm 30.05 1018 2 3.21868 0 0
6:35 am 06:35 Cloudy with Mist and Fog 43 6.3 43 6.1 99 99 Calm 30.06 1018 0.75 1.207005 0 0
6:55 am 06:55 Mostly Cloudy with Mist and Fog 44 6.5 43 6.2 98 98 Calm 30.06 1018 1.5 2.41401 0 0
7:15 am 07:15 Cloudy with Mist and Fog 46 7.8 46 7.6 99 99 Calm 30.05 1018 1.5 2.41401 0 0
7:35 am 07:35 Mostly Cloudy with Mist and Fog 47 8.5 46 8 97 97 Calm 30.05 1017 2 3.21868 0 0
7:55 am 07:55 Sunny with Mist and Fog 49 9.2 47 8.5 95 95 Calm 30.04 1017 2.5 4.02335 0 0
8:15 am 08:15 Sunny with Mist and Fog 51 10.3 48 9 92 92 ESE 6 9 30.04 1017 4 6.43736 0 0
8:35 am 08:35 Sunny 52 11 48 9 88 88 SE 7 11 30.03 1017 7 11.26538 0 0
8:55 am 08:55 Mostly Cloudy 53 11.6 49 9.3 86 86 SE 5 7 30.04 1017 7 11.26538 0 0
9:15 am 09:15 Cloudy 53 11.6 49 9.2 85 85 SSE 7 11 30.04 1017 10 16.0934 0 0
9:35 am 09:35 Cloudy 53 11.8 49 9.4 85 85 SSE 5 7 30.03 1017 10 16.0934 0 0
9:55 am 09:55 Cloudy 54 12 49 9.4 84 84 S 5 7 30.03 1017 7 11.26538 0 0
10:15 am 10:15 Cloudy 54 12.2 49 9.5 84 84 SSE 6 9 30.03 1017 10 16.0934 0 0
10:35 am 10:35 Cloudy 55 12.7 49 9.7 82 82 SSE 5 7 30.02 1016 10 16.0934 0 0
10:55 am 10:55 Cloudy 56 13.2 51 10.3 83 83 S 8 13 30.01 1016 7 11.26538 0 0
11:15 am 11:15 Cloudy 56 13.4 50 10.1 81 81 SE 7 11 30 1016 10 16.0934 0 0
11:35 am 11:35 Cloudy 58 14.3 51 10.7 79 79 SSE 7 11 29.99 1016 10 16.0934 0 0
11:55 am 11:55 Cloudy 59 14.8 52 11 78 78 ESE 6 9 29.99 1015 10 16.0934 0 0
12:15 pm 12:15 Mostly Cloudy 60 15.3 52 11.2 77 77 SE 5 7 29.97 1015 10 16.0934 0 0
12:35 pm 12:35 Mostly Cloudy 61 15.9 53 11.7 76 76 E 5 7 29.97 1015 10 16.0934 0 0
12:55 pm 12:55 Partly Cloudy 61 16.1 54 12.1 77 77 E 9 15 29.96 1014 10 16.0934 0 0
1:15 pm 13:15 Partly Cloudy 62 16.6 54 12.2 75 75 ESE 7 11 29.94 1014 7 11.26538 0 0
1:35 pm 13:35 Sunny 62 16.9 54 12 73 73 ESE 7 11 29.94 1014 10 16.0934 0 0
1:55 pm 13:55 Sunny 64 17.7 56 13.3 76 76 ESE 8 13 29.92 1013 7 11.26538 0 0
2:15 pm 14:15 Sunny 64 18 55 12.9 72 72 ESE 8 13 29.92 1013 7 11.26538 0 0
2:35 pm 14:35 Sunny 65 18.4 55 12.9 70 70 E 9 15 29.91 1013 7 11.26538 0 0
2:55 pm 14:55 Sunny 66 19.1 56 13.2 69 69 E 10 17 29.89 1012 7 11.26538 0 0
3:15 pm 15:15 Sunny 68 20 55 13 64 64 SE 8 13 29.88 1012 7 11.26538 0 0
3:35 pm 15:35 Sunny 69 20.6 56 13.5 64 64 ESE 8 13 29.87 1011 10 16.0934 0 0
3:55 pm 15:55 Sunny 70 21.1 56 13.3 61 61 ESE 9 15 29.85 1011 10 16.0934 0 0
4:15 pm 16:15 Sunny 71 21.4 56 13.2 60 60 ESE 8 13 29.85 1011 10 16.0934 0 0
4:35 pm 16:35 Sunny 71 21.6 55 13 58 58 ESE 9 15 29.84 1010 7 11.26538 0 0
4:55 pm 16:55 Sunny 72 22 55 12.7 56 56 E 8 13 29.83 1010 10 16.0934 0 0
5:15 pm 17:15 Sunny 72 22.1 56 13.1 57 57 E 12 19 29.82 1010 10 16.0934 0 0
5:35 pm 17:35 Sunny 72 22.1 55 12.5 55 55 ESE 12 19 29.82 1010 10 16.0934 0 0
5:55 pm 17:55 Sunny 72 22.2 55 12.6 55 55 E 13 20 29.81 1010 10 16.0934 0 0
6:15 pm 18:15 Sunny 72 22.2 55 12.5 54 54 ESE 10 17 29.81 1010 10 16.0934 0 0
6:35 pm 18:35 Sunny 72 22.2 54 12.3 54 54 ESE 12 19 29.8 1009 10 16.0934 0 0
6:55 pm 18:55 Sunny 72 22.2 53 11.5 51 51 ESE 13 20 29.8 1009 10 16.0934 0 0
7:15 pm 19:15 Sunny 72 22.1 53 11.5 51 51 ESE 12 19 29.8 1009 10 16.0934 0 0
7:35 pm 19:35 Sunny 71 21.6 53 11.8 54 54 E 9 15 29.81 1009 10 16.0934 0 0
7:55 pm 19:55 Sunny 70 21 53 11.4 54 54 ESE 13 20 29.81 1010 10 16.0934 0 0
8:15 pm 20:15 Sunny 68 20.2 53 11.6 58 58 ESE 13 20 29.82 1010 10 16.0934 0 0
8:35 pm 20:35 Sunny 67 19.5 53 11.5 60 60 ESE 10 17 29.84 1010 10 16.0934 0 0
8:55 pm 20:55 Clear 65 18.6 53 11.5 64 64 E 12 19 29.84 1011 10 16.0934 0 0
9:15 pm 21:15 Clear 64 17.7 53 11.5 67 67 ESE 12 19 29.85 1011 10 16.0934 0 0
9:35 pm 21:35 Clear 63 17 53 11.5 70 70 ESE 10 17 29.87 1011 10 16.0934 0 0
9:55 pm 21:55 Clear 62 16.5 52 11.2 71 71 ESE 9 15 29.89 1012 10 16.0934 0 0
10:15 pm 22:15 Clear 61 15.9 52 11.1 73 73 ESE 10 17 29.91 1013 10 16.0934 0 0
10:35 pm 22:35 Clear 60 15.6 52 11.1 75 75 SE 9 15 29.92 1013 10 16.0934 0 0
10:55 pm 22:55 Clear 59 15.2 52 11 76 76 SE 7 11 29.93 1014 10 16.0934 0 0
11:15 pm 23:15 Clear 58 14.7 52 11 79 79 SE 7 11 29.94 1014 10 16.0934 0 0
11:35 pm 23:35 Clear 58 14.5 51 10.8 79 79 SE 6 9 29.94 1014 10 16.0934 0 0
11:55 pm 23:55 Clear 55 12.8 51 10.5 86 86 SSE 7 11 29.97 1015 10 16.0934 0 0

Powered by AerisWeather